FW7644 Weather Reports


time (UTC)temp
C
wind
direction
speed
KPH
gust
KPH
rain 1hr
cm
rain 24hr
cm
rain mn
cm
humidity
%
barometer
mb
20260903185640 24 0.0 0.0 0.00 0.00 0.00 34 1017.1
20260903185138 25 0.0 0.0 0.00 0.00 0.00 33 1017.1
20260903184636 25 0.0 0.0 0.00 0.00 0.00 32 1017.1
20260903184133 26 0.0 0.0 0.00 0.00 0.00 30 1017.2
20260903183632 26 0.0 0.0 0.00 0.00 0.00 29 1017.3
20260903183129 27 0.0 0.0 0.00 0.00 0.00 28 1017.3
20260903182627 27 0.0 0.0 0.00 0.00 0.00 28 1017.2
20260903182125 26 0.0 0.0 0.00 0.00 0.00 30 1017.2
20260903181622 26 0.0 0.0 0.00 0.00 0.00 28 1017.2
20260903181120 25 0.0 0.0 0.00 0.00 0.00 29 1017.3
20260903180618 26 0.0 0.0 0.00 0.00 0.00 28 1017.3
20260903180116 25 0.0 0.0 0.00 0.00 0.00 29 1017.3
20260903175613 25 0.0 0.0 0.00 0.00 0.00 29 1017.4
20260903175111 26 0.0 0.0 0.00 0.00 0.00 27 1017.5
20260903174610 26 0.0 0.0 0.00 0.00 0.00 28 1017.6
20260903174107 27 0.0 0.0 0.00 0.00 0.00 27 1017.6
20260903173606 26 0.0 0.0 0.00 0.00 0.00 27 1017.6
20260903173104 25 0.0 0.0 0.00 0.00 0.00 28 1017.6
20260903172601 26 0.0 0.0 0.00 0.00 0.00 26 1017.8
20260903172058 26 0.0 0.0 0.00 0.00 0.00 27 1017.8
20260903171556 27 0.0 0.0 0.00 0.00 0.00 25 1017.9
20260903171054 26 0.0 0.0 0.00 0.00 0.00 25 1018.0
20260903170552 26 0.0 0.0 0.00 0.00 0.00 25 1018.0
20260903170051 26 0.0 0.0 0.00 0.00 0.00 24 1018.0
20260903165549 26 0.0 0.0 0.00 0.00 0.00 25 1018.1
20260903165047 26 0.0 0.0 0.00 0.00 0.00 24 1018.2
20260903164545 25 0.0 0.0 0.00 0.00 0.00 23 1018.3
20260903164040 26 0.0 0.0 0.00 0.00 0.00 23 1018.4
20260903163538 26 0.0 0.0 0.00 0.00 0.00 22 1018.4
20260903163035 26 0.0 0.0 0.00 0.00 0.00 22 1018.5
20260903162533 26 0.0 0.0 0.00 0.00 0.00 23 1018.5
20260903162030 27 0.0 0.0 0.00 0.00 0.00 23 1018.6
20260903161528 26 0.0 0.0 0.00 0.00 0.00 23 1018.6
20260903161026 26 0.0 0.0 0.00 0.00 0.00 24 1018.6
20260903160524 26 0.0 0.0 0.00 0.00 0.00 23 1018.7
20260903160022 27 0.0 0.0 0.00 0.00 0.00 23 1018.8
20260903155519 26 0.0 0.0 0.00 0.00 0.00 25 1018.8
20260903155018 25 0.0 0.0 0.00 0.00 0.00 25 1018.9
20260903154516 25 0.0 0.0 0.00 0.00 0.00 25 1019.0
20260903154014 25 0.0 0.0 0.00 0.00 0.00 25 1019.0
20260903153513 25 0.0 0.0 0.00 0.00 0.00 24 1019.1
20260903153011 25 0.0 0.0 0.00 0.00 0.00 24 1019.1
20260903152508 25 0.0 0.0 0.00 0.00 0.00 26 1019.2
20260903152006 25 0.0 0.0 0.00 0.00 0.00 28 1019.3
20260903151504 25 0.0 0.0 0.00 0.00 0.00 27 1019.4
20260903151002 24 0.0 0.0 0.00 0.00 0.00 27 1019.5
20260903150500 25 0.0 0.0 0.00 0.00 0.00 27 1019.6
20260903145959 25 0.0 0.0 0.00 0.00 0.00 28 1019.6
20260903145457 25 0.0 0.0 0.00 0.00 0.00 27 1019.6
20260903144955 25 0.0 0.0 0.00 0.00 0.00 27 1019.6
20260903144453 25 0.0 0.0 0.00 0.00 0.00 27 1019.6
20260903143951 25 0.0 0.0 0.00 0.00 0.00 28 1019.7
20260903143449 25 0.0 0.0 0.00 0.00 0.00 31 1019.7
20260903142948 24 0.0 0.0 0.00 0.00 0.00 32 1019.8
20260903142446 24 0.0 0.0 0.00 0.00 0.00 32 1019.9
20260903141944 23 0.0 0.0 0.00 0.00 0.00 33 1020.0
20260903141442 23 0.0 0.0 0.00 0.00 0.00 33 1020.0
20260903140940 23 0.0 0.0 0.00 0.00 0.00 33 1020.0
20260903140438 23 0.0 0.0 0.00 0.00 0.00 34 1020.1
20260903135937 23 0.0 0.0 0.00 0.00 0.00 34 1020.1
20260903135435 23 0.0 0.0 0.00 0.00 0.00 35 1020.1
20260903134933 22 0.0 0.0 0.00 0.00 0.00 35 1020.1
20260903134431 22 0.0 0.0 0.00 0.00 0.00 35 1020.1
20260903133929 22 0.0 0.0 0.00 0.00 0.00 37 1020.2
20260903133428 22 0.0 0.0 0.00 0.00 0.00 37 1020.2
20260903132926 22 0.0 0.0 0.00 0.00 0.00 40 1020.2
20260903132424 22 0.0 0.0 0.00 0.00 0.00 40 1020.3
20260903131922 21 0.0 0.0 0.00 0.00 0.00 42 1020.3
20260903131420 22 0.0 0.0 0.00 0.00 0.00 43 1020.3
20260903130918 22 0.0 0.0 0.00 0.00 0.00 44 1020.4
20260903130416 21 0.0 0.0 0.00 0.00 0.00 44 1020.4
20260903125913 21 0.0 0.0 0.00 0.00 0.00 45 1020.5
20260903125411 21 0.0 0.0 0.00 0.00 0.00 47 1020.5
20260903124908 20 0.0 0.0 0.00 0.00 0.00 48 1020.4
20260903124405 20 0.0 0.0 0.00 0.00 0.00 49 1020.5
20260903123903 20 0.0 0.0 0.00 0.00 0.00 51 1020.5
20260903123400 20 0.0 0.0 0.00 0.00 0.00 54 1020.6
20260903122857 20 0.0 0.0 0.00 0.00 0.00 53 1020.7
20260903122355 19 0.0 0.0 0.00 0.00 0.00 54 1020.7
20260903121851 20 0.0 0.0 0.00 0.00 0.00 55 1020.8
20260903121348 19 0.0 0.0 0.00 0.00 0.00 56 1020.8
20260903120846 18 0.0 0.0 0.00 0.00 0.00 57 1020.8
20260903120344 17 0.0 0.0 0.00 0.00 0.00 60 1020.8
20260903115840 17 0.0 0.0 0.00 0.00 0.00 63 1020.8
20260903115338 18 0.0 0.0 0.00 0.00 0.00 60 1020.8
20260903114836 17 0.0 0.0 0.00 0.00 0.00 62 1020.9
20260903114334 18 0.0 0.0 0.00 0.00 0.00 60 1020.8
20260903113833 17 0.0 0.0 0.00 0.00 0.00 63 1020.8
20260903113332 17 0.0 0.0 0.00 0.00 0.00 63 1020.7
20260903112830 17 0.0 0.0 0.00 0.00 0.00 63 1020.8
20260903112328 16 0.0 0.0 0.00 0.00 0.00 67 1020.8
20260903111827 16 0.0 0.0 0.00 0.00 0.00 69 1020.9
20260903111325 16 0.0 0.0 0.00 0.00 0.00 67 1021.0
20260903110823 16 0.0 0.0 0.00 0.00 0.00 68 1021.0
20260903110321 17 0.0 0.0 0.00 0.00 0.00 66 1020.9
20260903105819 17 0.0 0.0 0.00 0.00 0.00 66 1020.9
20260903105317 17 0.0 0.0 0.00 0.00 0.00 66 1020.9
20260903104816 17 0.0 0.0 0.00 0.00 0.00 67 1020.9
20260903104314 16 0.0 0.0 0.00 0.00 0.00 69 1020.8
20260903103812 15 0.0 0.0 0.00 0.00 0.00 76 1020.9
20260903103311 12 0.0 0.0 0.00 0.00 0.00 91 1020.9
20260903102809 11 0.0 0.0 0.00 0.00 0.00 92 1020.9
20260903102308 11 0.0 0.0 0.00 0.00 0.00 92 1020.9
20260903101806 11 0.0 0.0 0.00 0.00 0.00 95 1020.9
20260903101304 10 0.0 0.0 0.00 0.00 0.00 95 1020.9
20260903100803 10 0.0 0.0 0.00 0.00 0.00 95 1021.0
20260903100301 10 0.0 0.0 0.00 0.00 0.00 94 1021.0
20260903095759 10 0.0 0.0 0.00 0.00 0.00 94 1021.0
20260903095258 10 0.0 0.0 0.00 0.00 0.00 94 1021.0
20260903094756 10 0.0 0.0 0.00 0.00 0.00 94 1021.0
20260903094255 10 0.0 0.0 0.00 0.00 0.00 94 1021.0
20260903093753 10 0.0 0.0 0.00 0.00 0.00 93 1020.9
20260903093251 11 0.0 0.0 0.00 0.00 0.00 93 1020.9
20260903092750 11 0.0 0.0 0.00 0.00 0.00 94 1020.8
20260903092248 10 0.0 0.0 0.00 0.00 0.00 93 1020.8
20260903091746 11 0.0 0.0 0.00 0.00 0.00 93 1020.7
20260903091244 11 0.0 0.0 0.00 0.00 0.00 92 1020.7
20260903090742 11 0.0 0.0 0.00 0.00 0.00 92 1020.7
20260903090241 11 0.0 0.0 0.00 0.00 0.00 92 1020.7
20260903085739 11 0.0 0.0 0.00 0.00 0.00 92 1020.7
20260903085238 11 0.0 0.0 0.00 0.00 0.00 91 1020.7
20260903084736 11 0.0 0.0 0.00 0.00 0.00 91 1020.7
20260903084235 11 0.0 0.0 0.00 0.00 0.00 90 1020.7
20260903083734 11 0.0 0.0 0.00 0.00 0.00 90 1020.7
20260903083232 11 0.0 0.0 0.00 0.00 0.00 90 1020.6
20260903082730 11 0.0 0.0 0.00 0.00 0.00 90 1020.6
20260903082229 11 0.0 0.0 0.00 0.00 0.00 90 1020.5
20260903081727 11 0.0 0.0 0.00 0.00 0.00 90 1020.6
20260903081226 11 0.0 0.0 0.00 0.00 0.00 90 1020.5
20260903080724 12 0.0 0.0 0.00 0.00 0.00 91 1020.5
20260903080223 12 0.0 0.0 0.00 0.00 0.00 92 1020.5
20260903075721 12 0.0 0.0 0.00 0.00 0.00 92 1020.5
20260903075220 12 0.0 0.0 0.00 0.00 0.00 92 1020.5
20260903074718 12 0.0 0.0 0.00 0.00 0.00 92 1020.5
20260903074217 12 0.0 0.0 0.00 0.00 0.00 92 1020.5
20260903073715 12 0.0 0.0 0.00 0.00 0.00 93 1020.6
20260903073213 12 0.0 0.0 0.00 0.00 0.00 93 1020.5
20260903072712 12 0.0 0.0 0.00 0.00 0.00 93 1020.5
20260903072210 12 0.0 0.0 0.00 0.00 0.00 94 1020.5
20260903071709 12 0.0 0.0 0.00 0.00 0.00 94 1020.6
20260903071207 12 0.0 0.0 0.00 0.00 0.00 94 1020.5
20260903070706 12 0.0 0.0 0.00 0.00 0.00 94 1020.5
20260903070204 12 0.0 0.0 0.00 0.00 0.00 94 1020.5
20260903065703 12 0.0 0.0 0.00 0.00 0.00 94 1020.6
20260903065201 12 0.0 0.0 0.00 0.00 0.00 94 1020.6
20260903064659 12 0.0 0.0 0.00 0.00 0.00 94 1020.6
20260903064158 12 0.0 0.0 0.00 0.00 0.00 94 1020.7
20260903063656 12 0.0 0.0 0.00 0.00 0.00 94 1020.7
20260903063154 12 0.0 0.0 0.00 0.00 0.00 94 1020.7
20260903062652 12 0.0 0.0 0.00 0.00 0.00 94 1020.7
20260903062150 12 0.0 0.0 0.00 0.00 0.00 94 1020.7
20260903061649 12 0.0 0.0 0.00 0.00 0.00 94 1020.7
20260903061147 12 0.0 0.0 0.00 0.00 0.00 94 1020.7
20260903060645 12 0.0 0.0 0.00 0.00 0.00 94 1020.8
20260903060144 12 0.0 0.0 0.00 0.00 0.00 94 1020.8
20260903055642 12 0.0 0.0 0.00 0.00 0.00 95 1020.8
20260903055141 12 0.0 0.0 0.00 0.00 0.00 95 1020.8
20260903054639 12 0.0 0.0 0.00 0.00 0.00 95 1020.8
20260903054137 12 0.0 0.0 0.00 0.00 0.00 95 1020.9
20260903053636 12 0.0 0.0 0.00 0.00 0.00 95 1020.9
20260903053134 12 0.0 0.0 0.00 0.00 0.00 95 1021.0
20260903052633 12 0.0 0.0 0.00 0.00 0.00 95 1021.0
20260903052131 12 0.0 0.0 0.00 0.00 0.00 94 1021.0
20260903051629 12 0.0 0.0 0.00 0.00 0.00 94 1021.1
20260903051127 13 0.0 0.0 0.00 0.00 0.00 94 1021.1
20260903050626 13 0.0 0.0 0.00 0.00 0.00 94 1021.2
20260903050125 13 0.0 0.0 0.00 0.00 0.00 93 1021.3
20260903045623 13 0.0 0.0 0.00 0.00 0.00 93 1021.4
20260903045121 13 0.0 0.0 0.00 0.00 0.00 93 1021.4
20260903044619 13 0.0 0.0 0.00 0.00 0.00 93 1021.5
20260903044118 13 0.0 0.0 0.00 0.00 0.00 94 1021.5
20260903043616 13 0.0 0.0 0.00 0.00 0.00 94 1021.6
20260903043114 13 0.0 0.0 0.00 0.00 0.00 94 1021.6
20260903042613 13 0.0 0.0 0.00 0.00 0.00 93 1021.6
20260903042112 13 0.0 0.0 0.00 0.00 0.00 94 1021.7
20260903041610 13 0.0 0.0 0.00 0.00 0.00 94 1021.7
20260903041109 13 0.0 0.0 0.00 0.00 0.00 93 1021.7
20260903040607 13 0.0 0.0 0.00 0.00 0.00 93 1021.8
20260903040105 13 0.0 0.0 0.00 0.00 0.00 93 1021.9
20260903035603 13 0.0 0.0 0.00 0.00 0.00 93 1021.9
20260903035102 13 0.0 0.0 0.00 0.00 0.00 94 1022.0
20260903034600 13 0.0 0.0 0.00 0.00 0.00 94 1022.0
20260903034059 13 0.0 0.0 0.00 0.00 0.00 94 1022.0
20260903033557 13 0.0 0.0 0.00 0.00 0.00 94 1022.1
20260903033055 13 0.0 0.0 0.00 0.00 0.00 94 1022.1
20260903032554 13 0.0 0.0 0.00 0.00 0.00 94 1022.1
20260903032052 13 0.0 0.0 0.00 0.00 0.00 95 1022.2
20260903031550 13 0.0 0.0 0.00 0.00 0.00 94 1022.2
20260903031049 13 0.0 0.0 0.00 0.00 0.00 94 1022.2
20260903030547 13 0.0 0.0 0.00 0.00 0.00 94 1022.3
20260903030045 13 0.0 0.0 0.00 0.00 0.00 94 1022.4
20260903025543 13 0.0 0.0 0.00 0.00 0.00 94 1022.4
20260903025042 13 0.0 0.0 0.00 0.00 0.00 95 1022.4
20260903024541 13 0.0 0.0 0.00 0.00 0.00 95 1022.4
20260903024039 13 0.0 0.0 0.00 0.00 0.00 95 1022.5
20260903023538 13 0.0 0.0 0.00 0.00 0.00 95 1022.5
20260903023036 13 0.0 0.0 0.00 0.00 0.00 95 1022.5
20260903022535 13 0.0 0.0 0.00 0.00 0.00 95 1022.5
20260903022033 13 0.0 0.0 0.00 0.00 0.00 95 1022.5
20260903021532 13 0.0 0.0 0.00 0.00 0.00 96 1022.6
20260903021030 13 0.0 0.0 0.00 0.00 0.00 96 1022.6
20260903020528 13 0.0 0.0 0.00 0.00 0.00 96 1022.6
20260903020027 13 0.0 0.0 0.00 0.00 0.00 96 1022.6
20260903015525 13 0.0 0.0 0.00 0.00 0.00 96 1022.6
20260903015023 13 0.0 0.0 0.00 0.00 0.00 96 1022.6
20260903014521 13 0.0 0.0 0.00 0.00 0.00 96 1022.6
20260903014019 13 0.0 0.0 0.00 0.00 0.00 96 1022.6
20260903013517 13 0.0 0.0 0.00 0.00 0.00 96 1022.6
20260903013015 13 0.0 0.0 0.00 0.00 0.00 96 1022.7
20260903012514 13 0.0 0.0 0.00 0.00 0.00 96 1022.8
20260903012012 13 0.0 0.0 0.00 0.00 0.00 97 1022.8
20260903011510 13 0.0 0.0 0.00 0.00 0.00 97 1022.8
20260903011008 13 0.0 0.0 0.00 0.00 0.00 97 1022.9
20260903010506 13 0.0 0.0 0.00 0.00 0.00 97 1022.9
20260903010003 13 0.0 0.0 0.00 0.00 0.00 97 1022.9
20260903005501 13 0.0 0.0 0.00 0.00 0.00 97 1022.9
20260903005000 13 0.0 0.0 0.00 0.00 0.00 97 1022.8
20260903004458 13 0.0 0.0 0.00 0.00 0.00 97 1022.7
20260903003956 13 0.0 0.0 0.00 0.00 0.00 97 1022.7
20260903003455 13 0.0 0.0 0.00 0.00 0.00 97 1022.7
20260903002952 13 0.0 0.0 0.00 0.00 0.00 98 1022.6
20260903002450 13 0.0 0.0 0.00 0.00 0.00 98 1022.6
20260903001948 13 0.0 0.0 0.00 0.00 0.00 98 1022.7
20260903001446 13 0.0 0.0 0.00 0.00 0.00 99 1022.7
20260903000944 13 0.0 0.0 0.00 0.00 0.00 99 1022.7
20260903000442 12 0.0 0.0 0.00 0.00 0.00 99 1022.6
20260902235940 12 0.0 0.0 0.00 0.00 0.00 99 1022.7
20260902235438 12 0.0 0.0 0.00 0.00 0.00 99 1022.7
20260902234935 12 0.0 0.0 0.00 0.00 0.00 99 1022.6
20260902234433 12 0.0 0.0 0.00 0.00 0.00 98 1022.6
20260902233931 12 0.0 0.0 0.00 0.00 0.00 98 1022.5
20260902233429 12 0.0 0.0 0.00 0.00 0.00 98 1022.6
20260902232927 12 0.0 0.0 0.00 0.00 0.00 97 1022.5
20260902232425 12 0.0 0.0 0.00 0.00 0.00 97 1022.5
20260902231924 12 0.0 0.0 0.00 0.00 0.00 97 1022.5
20260902231422 12 0.0 0.0 0.00 0.00 0.00 96 1022.4
20260902230919 13 0.0 0.0 0.00 0.00 0.00 96 1022.5
20260902230418 13 0.0 0.0 0.00 0.00 0.00 95 1022.5
20260902225915 13 0.0 0.0 0.00 0.00 0.00 96 1022.5
20260902225413 13 0.0 0.0 0.00 0.00 0.00 96 1022.5
20260902224912 13 0.0 0.0 0.00 0.00 0.00 96 1022.4
20260902224410 13 0.0 0.0 0.00 0.00 0.00 95 1022.4
20260902223908 13 0.0 0.0 0.00 0.00 0.00 96 1022.4
20260902223406 13 0.0 0.0 0.00 0.00 0.00 95 1022.3
20260902222904 13 0.0 0.0 0.00 0.00 0.00 95 1022.2
20260902222402 13 0.0 0.0 0.00 0.00 0.00 95 1022.2
20260902221900 13 0.0 0.0 0.00 0.00 0.00 95 1022.2
20260902221358 13 0.0 0.0 0.00 0.00 0.00 95 1022.1
20260902220857 13 0.0 0.0 0.00 0.00 0.00 95 1022.1
20260902220355 13 0.0 0.0 0.00 0.00 0.00 95 1022.0
20260902215853 13 0.0 0.0 0.00 0.00 0.00 94 1022.0
20260902215351 13 0.0 0.0 0.00 0.00 0.00 94 1021.9
20260902214849 13 0.0 0.0 0.00 0.00 0.00 93 1021.9
20260902214348 13 0.0 0.0 0.00 0.00 0.00 93 1021.9
20260902213846 13 0.0 0.0 0.00 0.00 0.00 92 1021.9
20260902213344 13 0.0 0.0 0.00 0.00 0.00 92 1021.9
20260902212843 13 0.0 0.0 0.00 0.00 0.00 92 1021.9
20260902212341 14 0.0 0.0 0.00 0.00 0.00 91 1021.8
20260902211839 14 0.0 0.0 0.00 0.00 0.00 90 1021.8
20260902211337 14 0.0 0.0 0.00 0.00 0.00 89 1021.8
20260902210835 14 0.0 0.0 0.00 0.00 0.00 89 1021.8
20260902210334 14 0.0 0.0 0.00 0.00 0.00 89 1021.7
20260902205832 14 0.0 0.0 0.00 0.00 0.00 88 1021.7
20260902205330 14 0.0 0.0 0.00 0.00 0.00 88 1021.7
20260902204828 15 0.0 0.0 0.00 0.00 0.00 85 1021.7
20260902204326 15 0.0 0.0 0.00 0.00 0.00 83 1021.8
20260902203824 16 0.0 0.0 0.00 0.00 0.00 79 1021.8
20260902203322 16 0.0 0.0 0.00 0.00 0.00 79 1021.8
20260902202820 16 0.0 0.0 0.00 0.00 0.00 75 1021.7
20260902202319 16 0.0 0.0 0.00 0.00 0.00 76 1021.7
20260902201817 17 0.0 0.0 0.00 0.00 0.00 72 1021.7
20260902201315 16 0.0 0.0 0.00 0.00 0.00 75 1021.6
20260902200813 16 0.0 0.0 0.00 0.00 0.00 74 1021.5
20260902200311 18 0.0 0.0 0.00 0.00 0.00 69 1021.5
20260902195809 17 0.0 0.0 0.00 0.00 0.00 74 1021.5
20260902195307 17 0.0 0.0 0.00 0.00 0.00 69 1021.5
20260902194805 18 0.0 0.0 0.00 0.00 0.00 68 1021.4
20260902194304 17 0.0 0.0 0.00 0.00 0.00 74 1021.4
20260902193802 17 0.0 0.0 0.00 0.00 0.00 74 1021.4
20260902193301 17 0.0 0.0 0.00 0.00 0.00 69 1021.3
20260902192759 20 0.0 0.0 0.00 0.00 0.00 62 1021.3
20260902192257 20 0.0 0.0 0.00 0.00 0.00 62 1021.3
20260902191755 20 0.0 0.0 0.00 0.00 0.00 61 1021.3
20260902191254 20 0.0 0.0 0.00 0.00 0.00 63 1021.2
20260902190752 20 0.0 0.0 0.00 0.00 0.00 64 1021.2
20260902190251 18 0.0 0.0 0.00 0.00 0.00 69 1021.2